Weather History for Milton, FL

Change the Weather History Date:

Sunday, May 12, 2013

  Actual Average (KNSE) Record (KNSE)
Temperature  
Mean Temperature 72 °F -  
Max Temperature 80 °F 82 °F 96 °F (2011)
Min Temperature 62 °F 61 °F 54 °F (2008)
Cooling Degree Days 6    
Growing Degree Days 22 (Base 50)    
Moisture  
Dew Point 57 °F    
Average Humidity 69    
Maximum Humidity 97    
Minimum Humidity 33    
Precipitation  
Precipitation 0.00 in - - ()
Sea Level Pressure  
Sea Level Pressure 30.02 in    
Wind  
Wind Speed 6 mph (NNW)    
Max Wind Speed 13 mph    
Max Gust Speed 22 mph    
Visibility 8 miles    
Events      
Averages and records for this station are not official NWS values.
T = Trace of Precipitation, MM = Missing Value Source: NWS Daily Summary

Daily Weather History Graph

Daily Weather History Graph

Search for Another Location

Airport:

Trip Planner

Search our weather history database for the weather conditions in past years. The results will help you decide how hot, cold, wet, or windy it might be!

Date:

Astronomy

May. 12, 2013 Rise Set
Actual Time 5:55 AM CDT 7:34 PM CDT
Civil Twilight 5:28 AM CDT 8:00 PM CDT
Nautical Twilight 4:57 AM CDT 8:31 PM CDT
Astronomical Twilight 4:24 AM CDT 9:05 PM CDT
Moon 7:52 AM CDT (5/12) 9:58 PM CDT (5/12)
Length of Visible Light 14h 31m
Length of Day
13h 38m
Waxing Crescent, 7% of the Moon is Illuminated
May 12
Waxing Crescent
May 17
First Quarter
May 24
Full
May 31
Last Quarter
Jun 8
New

Hourly Weather History & Observations

Time (CDT) Temp. Dew Point Humidity Pressure Visibility Wind Dir Wind Speed Gust Speed Precip Events Conditions
12:56 AM 64.9 °F 64.0 °F 97% 29.96 in 9.0 mi NW 4.6 mph - N/A   Clear
1:14 AM 64.4 °F 62.6 °F 94% 30.00 in 7.0 mi Calm Calm - N/A   Scattered Clouds
1:23 AM 64.4 °F 62.6 °F 94% 30.00 in 2.5 mi Calm Calm - N/A   Mostly Cloudy
1:34 AM 64.4 °F 62.6 °F 94% 30.00 in 7.0 mi Calm Calm - N/A   Overcast
1:56 AM 64.9 °F 64.0 °F 97% 29.96 in 1.2 mi WNW 3.5 mph - N/A   Overcast
2:07 AM 64.4 °F 62.6 °F 94% 29.99 in 0.8 mi West 3.5 mph - N/A   Mist
2:56 AM 66.0 °F 64.0 °F 93% 29.96 in 0.8 mi WNW 5.8 mph - N/A   Mist
3:07 AM 66.2 °F 64.4 °F 94% 29.99 in 1.0 mi WNW 5.8 mph - N/A   Mist
3:24 AM 66.2 °F 64.4 °F 94% 30.00 in 3.0 mi NW 6.9 mph - N/A   Overcast
3:56 AM 64.9 °F 63.0 °F 93% 29.96 in 10.0 mi NW 5.8 mph - N/A   Scattered Clouds
4:56 AM 66.0 °F 62.1 °F 87% 29.98 in 10.0 mi NNW 5.8 mph - N/A   Scattered Clouds
5:56 AM 63.0 °F 61.0 °F 93% 29.99 in 10.0 mi NNW 6.9 mph - N/A   Clear
6:56 AM 64.9 °F 61.0 °F 87% 30.01 in 10.0 mi North 5.8 mph - N/A   Clear
7:56 AM 66.9 °F 60.1 °F 79% 30.03 in 10.0 mi North 9.2 mph - N/A   Partly Cloudy
8:56 AM 71.1 °F 57.0 °F 61% 30.04 in 10.0 mi NNE 10.4 mph - N/A   Clear
9:56 AM 73.0 °F 52.0 °F 48% 30.05 in 10.0 mi NNE 12.7 mph - N/A   Clear
10:56 AM 75.9 °F 48.0 °F 37% 30.05 in 10.0 mi NNE 10.4 mph - N/A   Clear
11:56 AM 77.0 °F 46.0 °F 33% 30.04 in 10.0 mi North 11.5 mph - N/A   Clear
12:56 PM 80.1 °F 51.1 °F 36% 30.04 in 10.0 mi NNE 9.2 mph 19.6 mph N/A   Clear
1:56 PM 79.0 °F 52.0 °F 39% 30.03 in 10.0 mi NNW 10.4 mph - N/A   Clear
2:56 PM 79.0 °F 53.1 °F 40% 30.03 in 10.0 mi NNW 9.2 mph - N/A   Clear
3:56 PM 79.0 °F 53.1 °F 40% 30.01 in 10.0 mi NNW 12.7 mph 21.9 mph N/A   Clear
4:56 PM 77.0 °F 54.0 °F 45% 30.02 in 10.0 mi NNW 10.4 mph - N/A   Partly Cloudy
5:56 PM 77.0 °F 53.1 °F 43% 30.02 in 10.0 mi NNW 10.4 mph - N/A   Partly Cloudy
6:56 PM 73.0 °F 55.0 °F 53% 30.03 in 10.0 mi NNW 6.9 mph - N/A   Clear
7:56 PM 69.1 °F 55.0 °F 61% 30.04 in 10.0 mi NNW 5.8 mph - N/A   Clear
8:56 PM 69.1 °F 55.0 °F 61% 30.05 in 10.0 mi NNW 10.4 mph - N/A   Clear
9:56 PM 66.0 °F 55.0 °F 68% 30.07 in 10.0 mi North 3.5 mph - N/A   Clear
10:56 PM 64.0 °F 53.1 °F 67% 30.07 in 10.0 mi North 6.9 mph - N/A   Clear
11:56 PM 62.1 °F 48.9 °F 62% 30.08 in 10.0 mi North 8.1 mph - N/A   Clear